GW5898 Weather Reports


time (UTC)temp
C
wind
direction
speed
KPH
gust
KPH
rain 1hr
cm
rain 24hr
cm
rain mn
cm
humidity
%
barometer
mb
20260505082206 17 154 4.8 11.3 0.00 0.00 0.00 83 1019.2
20260505081701 17 154 12.9 17.7 0.00 0.00 0.00 82 1019.4
20260505081159 17 151 4.8 11.3 0.00 0.00 0.00 82 1019.3
20260505080656 17 131 4.8 22.5 0.00 0.00 0.00 81 1019.2
20260505080152 18 189 14.5 17.7 0.00 0.00 0.00 81 1019.4
20260505075648 18 145 9.7 22.5 0.00 0.00 0.00 81 1019.4
20260505075145 18 136 8.0 29.0 0.00 0.00 0.00 80 1019.5
20260505074642 18 139 9.7 14.5 0.00 0.00 0.00 80 1019.7
20260505074139 18 162 6.4 17.7 0.00 0.00 0.00 80 1019.7
20260505073637 18 136 11.3 17.7 0.00 0.00 0.00 80 1019.7
20260505073135 18 129 4.8 22.5 0.00 0.00 0.00 80 1019.7
20260505072630 17 147 11.3 17.7 0.00 0.00 0.00 79 1019.8
20260505072127 17 154 8.0 22.5 0.00 0.00 0.00 79 1019.4
20260505071622 17 152 11.3 22.5 0.00 0.00 0.00 79 1019.6
20260505071120 17 168 8.0 25.7 0.00 0.00 0.00 79 1020.0
20260505070617 17 167 8.0 14.5 0.00 0.00 0.00 78 1019.8
20260505070113 17 142 6.4 17.7 0.00 0.00 0.00 78 1020.1
20260505065609 17 147 19.3 29.0 0.00 0.00 0.00 78 1020.2
20260505065106 17 101 14.5 17.7 0.00 0.00 0.00 77 1020.2
20260505064603 17 136 11.3 17.7 0.00 0.00 0.00 77 1020.0
20260505064102 17 151 4.8 17.7 0.00 0.00 0.00 77 1020.4
20260505063559 17 147 9.7 25.7 0.00 0.00 0.00 77 1020.5
20260505063054 17 131 8.0 17.7 0.00 0.00 0.00 77 1020.7
20260505062551 17 136 8.0 25.7 0.00 0.00 0.00 76 1020.7
20260505062048 17 146 4.8 14.5 0.00 0.00 0.00 76 1020.8
20260505061546 17 174 12.9 17.7 0.00 0.00 0.00 76 1020.7
20260505061043 17 138 9.7 14.5 0.00 0.00 0.00 77 1020.8
20260505060541 17 180 8.0 11.3 0.00 0.00 0.00 76 1020.9
20260505060037 17 126 8.0 11.3 0.00 0.00 0.00 76 1020.8
20260505055533 17 152 6.4 11.3 0.00 0.00 0.00 76 1020.8
20260505055030 17 145 4.8 11.3 0.00 0.00 0.00 76 1020.9
20260505054527 17 134 8.0 14.5 0.00 0.00 0.00 75 1021.1
20260505054025 17 117 6.4 11.3 0.00 0.00 0.00 75 1021.1
20260505053522 17 195 11.3 22.5 0.00 0.00 0.00 75 1021.3
20260505053018 17 135 4.8 11.3 0.00 0.00 0.00 74 1020.9
20260505052516 17 120 4.8 8.0 0.00 0.00 0.00 74 1021.0
20260505052013 17 138 1.6 11.3 0.00 0.00 0.00 74 1021.2
20260505051510 17 144 1.6 11.3 0.00 0.00 0.00 73 1021.1
20260505051008 17 149 8.0 14.5 0.00 0.00 0.00 73 1021.0
20260505050506 17 128 6.4 11.3 0.00 0.00 0.00 72 1021.1
20260505041433 17 131 1.6 8.0 0.00 0.00 0.00 72 1021.2
20260505040931 17 139 3.2 3.2 0.00 0.00 0.00 72 1021.3
20260505040428 17 132 0.0 3.2 0.00 0.00 0.00 73 1021.3
20260505035924 17 124 3.2 3.2 0.00 0.00 0.00 73 1021.4
20260505035421 17 130 3.2 3.2 0.00 0.00 0.00 73 1021.5
20260505034918 17 125 0.0 0.0 0.00 0.00 0.00 73 1021.4
20260505034414 17 120 0.0 3.2 0.00 0.00 0.00 73 1021.5
20260505033912 17 129 0.0 3.2 0.00 0.00 0.00 73 1021.5
20260505033408 17 115 0.0 0.0 0.00 0.00 0.00 72 1021.5
20260505032907 18 127 0.0 3.2 0.00 0.00 0.00 71 1021.6
20260505032403 18 125 0.0 3.2 0.00 0.00 0.00 70 1021.4
20260505031859 18 130 1.6 3.2 0.00 0.00 0.00 70 1021.4
20260505031356 18 126 0.0 3.2 0.00 0.00 0.00 69 1021.5
20260505030854 18 137 3.2 3.2 0.00 0.00 0.00 68 1021.5
20260505030349 18 138 6.4 11.3 0.00 0.00 0.00 68 1021.2
20260505025845 18 125 0.0 3.2 0.00 0.00 0.00 67 1021.5
20260505025343 18 136 0.0 3.2 0.00 0.00 0.00 66 1021.4
20260505024841 19 132 1.6 3.2 0.00 0.00 0.00 66 1021.0
20260505024339 19 127 3.2 3.2 0.00 0.00 0.00 66 1020.9
20260505023835 19 122 3.2 8.0 0.00 0.00 0.00 65 1021.0
20260505023332 19 128 1.6 3.2 0.00 0.00 0.00 65 1020.9
20260505022830 19 135 4.8 8.0 0.00 0.00 0.00 65 1020.9
20260505022326 19 129 4.8 8.0 0.00 0.00 0.00 64 1020.8
20260505021824 19 130 3.2 11.3 0.00 0.00 0.00 65 1020.7
20260505021320 19 150 3.2 8.0 0.00 0.00 0.00 64 1020.7
20260505020816 19 132 4.8 8.0 0.00 0.00 0.00 64 1020.8
20260505020312 20 130 1.6 8.0 0.00 0.00 0.00 64 1020.6
20260505015809 20 129 0.0 3.2 0.00 0.00 0.00 63 1020.8
20260505015306 20 136 1.6 3.2 0.00 0.00 0.00 62 1020.8
20260505014803 20 136 1.6 3.2 0.00 0.00 0.00 62 1020.8
20260505014300 20 139 1.6 3.2 0.00 0.00 0.00 61 1020.6
20260505013757 20 140 1.6 8.0 0.00 0.00 0.00 61 1020.6
20260505013254 20 163 4.8 11.3 0.00 0.00 0.00 61 1020.3
20260505012752 20 140 3.2 8.0 0.00 0.00 0.00 61 1020.5
20260505012250 20 135 4.8 8.0 0.00 0.00 0.00 60 1020.4
20260505011745 20 137 4.8 8.0 0.00 0.00 0.00 60 1020.4
20260505011242 21 128 3.2 8.0 0.00 0.00 0.00 60 1020.4
20260505010738 21 142 3.2 17.7 0.00 0.00 0.00 60 1020.3
20260505010234 21 136 3.2 8.0 0.00 0.00 0.00 59 1020.3
20260505005731 21 140 3.2 8.0 0.00 0.00 0.00 58 1020.5
20260505005228 21 133 3.2 17.7 0.00 0.00 0.00 58 1020.5
20260505004725 21 136 4.8 8.0 0.00 0.00 0.00 59 1020.4
20260505004221 21 139 3.2 3.2 0.00 0.00 0.00 58 1020.3
20260505003719 22 137 3.2 8.0 0.00 0.00 0.00 58 1020.4
20260505003217 22 141 4.8 8.0 0.00 0.00 0.00 57 1020.5
20260505002712 22 138 1.6 14.5 0.00 0.00 0.00 57 1020.6
20260505002210 22 163 6.4 11.3 0.00 0.00 0.00 56 1020.5
20260505001708 22 166 4.8 14.5 0.00 0.00 0.00 55 1020.5
20260505001205 22 127 6.4 14.5 0.00 0.00 0.00 55 1020.5
20260505000702 22 140 9.7 14.5 0.00 0.00 0.00 55 1020.4
20260505000200 22 158 8.0 17.7 0.00 0.00 0.00 54 1020.6
20260504235656 23 161 8.0 14.5 0.00 0.00 0.00 54 1020.6
20260504235152 23 134 12.9 17.7 0.00 0.00 0.00 54 1020.6
20260504234650 23 156 9.7 14.5 0.00 0.00 0.00 53 1020.7
20260504234147 23 154 8.0 11.3 0.00 0.00 0.00 54 1020.8
20260504233642 23 152 6.4 11.3 0.00 0.00 0.00 54 1020.7
20260504233138 23 139 11.3 11.3 0.00 0.00 0.00 56 1020.9
20260504232637 23 168 6.4 11.3 0.00 0.00 0.00 54 1020.7
20260504232133 23 162 11.3 14.5 0.00 0.00 0.00 53 1020.7
20260504231630 23 144 8.0 11.3 0.00 0.00 0.00 53 1020.7
20260504231126 23 134 6.4 11.3 0.00 0.00 0.00 52 1021.0
20260504230622 24 142 8.0 14.5 0.00 0.00 0.00 51 1021.1
20260504230121 24 132 9.7 17.7 0.00 0.00 0.00 50 1021.1
20260504225619 24 151 6.4 14.5 0.00 0.00 0.00 50 1021.1
20260504225115 24 158 8.0 11.3 0.00 0.00 0.00 52 1021.1
20260504224612 24 134 8.0 17.7 0.00 0.00 0.00 49 1021.1
20260504224109 25 128 11.3 25.7 0.00 0.00 0.00 47 1021.4
20260504223606 25 168 8.0 11.3 0.00 0.00 0.00 50 1021.5
20260504223101 24 150 11.3 14.5 0.00 0.00 0.00 50 1021.3
20260504222559 24 137 9.7 17.7 0.00 0.00 0.00 48 1021.7
20260504222056 24 166 12.9 25.7 0.00 0.00 0.00 49 1021.4
20260504221553 25 130 12.9 29.0 0.00 0.00 0.00 47 1021.4
20260504221049 25 185 11.3 25.7 0.00 0.00 0.00 48 1021.7
20260504220546 25 201 4.8 22.5 0.00 0.00 0.00 48 1021.4
20260504220043 25 145 9.7 14.5 0.00 0.00 0.00 49 1021.7
20260504215539 24 122 11.3 17.7 0.00 0.00 0.00 49 1021.7
20260504215037 24 149 17.7 33.8 0.00 0.00 0.00 49 1021.8
20260504214533 25 126 8.0 29.0 0.00 0.00 0.00 50 1021.9
20260504214030 24 146 19.3 25.7 0.00 0.00 0.00 48 1021.8
20260504213526 24 157 6.4 11.3 0.00 0.00 0.00 51 1021.9
20260504213023 24 158 8.0 22.5 0.00 0.00 0.00 51 1022.1
20260504212519 25 162 8.0 29.0 0.00 0.00 0.00 49 1022.2
20260504212017 25 153 16.1 25.7 0.00 0.00 0.00 48 1022.0
20260504211513 25 271 4.8 14.5 0.00 0.00 0.00 48 1022.0
20260504211011 25 185 4.8 25.7 0.00 0.00 0.00 48 1022.2
20260504210508 24 150 14.5 25.7 0.00 0.00 0.00 47 1022.4
20260504210004 24 159 4.8 14.5 0.00 0.00 0.00 50 1022.5
20260504205502 25 122 12.9 22.5 0.00 0.00 0.00 48 1022.8
20260504205000 25 153 3.2 14.5 0.00 0.00 0.00 47 1022.6
20260504204458 25 148 6.4 17.7 0.00 0.00 0.00 49 1022.8
20260504203957 25 293 8.0 22.5 0.00 0.00 0.00 49 1022.9
20260504203454 23 87 11.3 25.7 0.00 0.00 0.00 49 1022.9
20260504202950 24 203 11.3 29.0 0.00 0.00 0.00 49 1023.0
20260504202446 25 166 11.3 22.5 0.00 0.00 0.00 49 1023.1
20260504201943 25 223 12.9 17.7 0.00 0.00 0.00 47 1023.1
20260504201441 25 149 12.9 22.5 0.00 0.00 0.00 49 1023.3
20260504200938 25 173 11.3 22.5 0.00 0.00 0.00 49 1023.3
20260504200435 25 159 8.0 29.0 0.00 0.00 0.00 48 1023.3
20260504195931 24 205 8.0 22.5 0.00 0.00 0.00 48 1023.6
20260504195427 24 156 14.5 33.8 0.00 0.00 0.00 47 1023.4
20260504194924 24 208 9.7 29.0 0.00 0.00 0.00 46 1023.5
20260504194420 24 242 8.0 33.8 0.00 0.00 0.00 48 1023.7
20260504193916 25 178 16.1 17.7 0.00 0.00 0.00 45 1023.7
20260504193414 25 160 4.8 22.5 0.00 0.00 0.00 49 1023.8
20260504192912 25 166 9.7 29.0 0.00 0.00 0.00 47 1023.9
20260504192409 25 131 6.4 11.3 0.00 0.00 0.00 48 1024.2
20260504191908 25 219 8.0 22.5 0.00 0.00 0.00 50 1023.9
20260504191405 25 179 11.3 14.5 0.00 0.00 0.00 48 1024.1
20260504190900 24 4 11.3 17.7 0.00 0.00 0.00 46 1024.4
20260504190356 25 217 6.4 17.7 0.00 0.00 0.00 47 1024.3
20260504185853 23 155 19.3 29.0 0.00 0.00 0.00 49 1024.1
20260504185350 24 134 6.4 14.5 0.00 0.00 0.00 50 1024.4
20260504184846 23 213 11.3 14.5 0.00 0.00 0.00 47 1024.3
20260504184342 24 187 8.0 11.3 0.00 0.00 0.00 51 1024.9
20260504183838 23 157 8.0 11.3 0.00 0.00 0.00 51 1025.0
20260504183336 23 134 8.0 17.7 0.00 0.00 0.00 51 1025.0
20260504182833 25 120 8.0 11.3 0.00 0.00 0.00 49 1024.9
20260504182331 23 220 9.7 17.7 0.00 0.00 0.00 48 1025.0
20260504181827 25 168 3.2 11.3 0.00 0.00 0.00 49 1025.3
20260504181325 24 148 6.4 17.7 0.00 0.00 0.00 51 1025.3
20260504180824 25 127 6.4 29.0 0.00 0.00 0.00 49 1025.3
20260504180322 23 207 6.4 17.7 0.00 0.00 0.00 52 1025.2
20260504175820 23 148 11.3 22.5 0.00 0.00 0.00 48 1025.4
20260504175316 23 138 9.7 17.7 0.00 0.00 0.00 50 1025.5
20260504174815 23 116 11.3 14.5 0.00 0.00 0.00 49 1025.3
20260504174312 23 141 6.4 17.7 0.00 0.00 0.00 51 1025.5
20260504173808 23 193 6.4 17.7 0.00 0.00 0.00 48 1025.4
20260504173305 23 218 3.2 17.7 0.00 0.00 0.00 50 1025.6
20260504172802 23 134 11.3 14.5 0.00 0.00 0.00 49 1025.7
20260504172259 23 165 17.7 25.7 0.00 0.00 0.00 49 1025.9
20260504171754 23 139 8.0 25.7 0.00 0.00 0.00 49 1025.9
20260504171252 23 160 14.5 22.5 0.00 0.00 0.00 49 1025.9
20260504170749 23 139 8.0 11.3 0.00 0.00 0.00 51 1025.8
20260504170246 22 154 8.0 17.7 0.00 0.00 0.00 52 1025.9
20260504160204 21 100 6.4 17.7 0.00 0.00 0.00 57 1027.0
20260504151132 20 157 14.5 22.5 0.00 0.00 0.00 63 1026.9
20260504150630 20 312 6.4 14.5 0.00 0.00 0.00 64 1027.1
20260504150126 20 168 8.0 14.5 0.00 0.00 0.00 64 1026.8
20260504141055 17 114 4.8 14.5 0.00 0.00 0.00 72 1027.2
20260504140551 17 140 3.2 11.3 0.00 0.00 0.00 72 1027.4
20260504130516 14 126 0.0 8.0 0.00 0.00 0.00 82 1027.3
20260504110403 11 108 0.0 0.0 0.00 0.00 0.00 89 1025.9
20260504100320 11 85 3.2 8.0 0.00 0.00 0.00 92 1026.4